Clarksburg, WV

2:52 PM EDT on September 21, 2017 (GMT -0400)
Benedum

Weather History for KCKB - January, 2013

Change the Weather History Date:

Monday, January 14, 2013

  Actual Average Record
Temperature  
Mean Temperature 45 °F -  
Max Temperature 57 °F 39 °F 71 °F (1932)
Min Temperature 33 °F 20 °F -9 °F (1929)
Degree Days  
Heating Degree Days 20    
Moisture  
Dew Point 40 °F    
Average Humidity 87    
Maximum Humidity 96    
Minimum Humidity 67    
Precipitation  
Precipitation 0.20 in - - ()
Sea Level Pressure  
Sea Level Pressure 30.19 in    
Wind  
Wind Speed 7 mph (WNW)    
Max Wind Speed 17 mph    
Max Gust Speed 26 mph    
Visibility 6 miles    
Events Rain , Snow    
Averages and records for this station are not official NWS values.
T = Trace of Precipitation, MM = Missing Value Source: NWS Daily Summary

Daily Weather History Graph

Daily Weather History Graph

Search for Another Location

Airport or City:

Trip Planner

Search our weather history database for the weather conditions in past years. The results will help you decide how hot, cold, wet, or windy it might be!

Date:

Astronomy

Jan. 14, 2013 Rise Set
Actual Time 7:39 AM EST 5:21 PM EST
Civil Twilight 7:09 AM EST 5:50 PM EST
Nautical Twilight 6:36 AM EST 6:23 PM EST
Astronomical Twilight 6:04 AM EST 6:55 PM EST
Moon 9:13 AM EST (1/14) 9:03 PM EST (1/14)
Length of Visible Light 10h 40m
Length of Day
9h 41m
Waxing Crescent, 11% of the Moon is Illuminated
Jan 14
Waxing Crescent
Jan 18
First Quarter
Jan 26
Full
Feb 3
Last Quarter
Feb 10
New

Hourly Weather History & Observations

Time (EST) Temp. Windchill Dew Point Humidity Pressure Visibility Wind Dir Wind Speed Gust Speed Precip Events Conditions
12:53 AM 57.9 °F - 55.9 °F 93% 29.92 in 10.0 mi SSW 4.6 mph - 0.03 in   Mostly Cloudy
1:06 AM 57.2 °F - 55.4 °F 94% 29.96 in 10.0 mi SW 6.9 mph - N/A   Mostly Cloudy
1:34 AM 57.2 °F - 55.4 °F 94% 29.97 in 2.5 mi SW 6.9 mph - 0.01 in Rain Light Rain
1:42 AM 57.2 °F - 55.4 °F 94% 29.96 in 5.0 mi South 4.6 mph - 0.01 in Rain Light Rain
1:53 AM 57.0 °F - 55.9 °F 96% 29.94 in 9.0 mi SSW 4.6 mph - 0.01 in   Overcast
2:27 AM 57.2 °F - 55.4 °F 94% 29.99 in 6.0 mi SSW 5.8 mph - 0.01 in Rain Light Rain
2:40 AM 57.2 °F - 55.4 °F 94% 30.02 in 4.0 mi West 17.3 mph 24.2 mph 0.01 in Rain Light Rain
2:53 AM 54.0 °F - 51.1 °F 90% 30.00 in 6.0 mi WNW 17.3 mph 25.3 mph 0.02 in Rain Light Rain
3:00 AM 53.6 °F - 50.0 °F 88% 30.03 in 9.0 mi NW 13.8 mph 26.5 mph 0.00 in Rain Light Rain
3:53 AM 48.9 °F - 45.0 °F 86% 30.06 in 10.0 mi WNW 12.7 mph - 0.00 in   Overcast
4:04 AM 48.2 °F - 44.6 °F 87% 30.08 in 5.0 mi WNW 10.4 mph 18.4 mph 0.00 in Rain Light Rain
4:28 AM 46.4 °F 41.9 °F 44.6 °F 93% 30.09 in 3.0 mi WNW 9.2 mph - 0.01 in Rain Light Rain
4:36 AM 46.4 °F - 44.6 °F 93% 30.09 in 3.0 mi Calm Calm - 0.02 in Rain Light Rain
4:53 AM 46.0 °F 44.8 °F 44.1 °F 93% 30.09 in 5.0 mi West 3.5 mph - 0.02 in Rain Light Rain
5:00 AM 46.4 °F 43.5 °F 44.6 °F 93% 30.11 in 8.0 mi West 5.8 mph - 0.00 in Rain Light Rain
5:08 AM 46.4 °F 41.9 °F 44.6 °F 93% 30.12 in 10.0 mi West 9.2 mph - 0.00 in Rain Light Rain
5:53 AM 45.0 °F 41.8 °F 42.1 °F 90% 30.14 in 10.0 mi West 5.8 mph - 0.00 in Rain Light Rain
6:29 AM 44.6 °F 42.2 °F 41.0 °F 87% 30.18 in 10.0 mi West 4.6 mph - 0.00 in Rain Light Rain
7:08 AM 42.8 °F 39.3 °F 41.0 °F 93% 30.21 in 4.0 mi West 5.8 mph - 0.01 in Rain Light Rain
7:53 AM 42.1 °F 37.7 °F 41.0 °F 96% 30.21 in 5.0 mi WNW 6.9 mph - 0.01 in Rain Light Rain
8:02 AM 42.8 °F 37.5 °F 39.2 °F 87% 30.23 in 3.0 mi WNW 9.2 mph - 0.00 in Rain Light Rain
8:10 AM 41.0 °F 35.2 °F 39.2 °F 93% 30.23 in 2.0 mi WNW 9.2 mph - 0.00 in Rain Light Rain
8:17 AM 41.0 °F 35.8 °F 39.2 °F 93% 30.23 in 2.5 mi WNW 8.1 mph - 0.00 in   Overcast
8:24 AM 41.0 °F 35.2 °F 39.2 °F 93% 30.24 in 4.0 mi WNW 9.2 mph - 0.00 in   Overcast
8:53 AM 42.1 °F 38.4 °F 39.9 °F 92% 30.25 in 10.0 mi WNW 5.8 mph - 0.00 in   Overcast
9:16 AM 41.0 °F 38.0 °F 39.2 °F 93% 30.27 in 2.0 mi WNW 4.6 mph - 0.00 in Rain Light Rain
9:53 AM 41.0 °F 37.1 °F 39.9 °F 96% 30.27 in 2.0 mi West 5.8 mph - 0.01 in   Overcast
10:51 AM 41.0 °F 36.4 °F 37.4 °F 87% 30.28 in 7.0 mi WNW 6.9 mph - 0.01 in   Overcast
10:53 AM 41.0 °F 37.1 °F 37.9 °F 89% 30.27 in 8.0 mi WNW 5.8 mph - 0.01 in   Overcast
11:53 AM 42.1 °F 39.2 °F 36.0 °F 79% 30.26 in 10.0 mi NW 4.6 mph - N/A   Overcast
12:35 PM 42.8 °F 40.1 °F 35.6 °F 76% 30.25 in 10.0 mi WNW 4.6 mph - N/A   Overcast
12:53 PM 42.1 °F 37.7 °F 36.0 °F 79% 30.24 in 10.0 mi NW 6.9 mph - N/A   Overcast
1:53 PM 42.1 °F 38.4 °F 35.1 °F 76% 30.21 in 10.0 mi NW 5.8 mph - N/A   Overcast
2:53 PM 42.1 °F - 34.0 °F 73% 30.18 in 10.0 mi Calm Calm - N/A   Overcast
3:53 PM 42.1 °F 38.4 °F 34.0 °F 73% 30.22 in 10.0 mi NNW 5.8 mph - N/A   Overcast
4:53 PM 42.1 °F 39.2 °F 33.1 °F 70% 30.26 in 10.0 mi NNW 4.6 mph - N/A   Overcast
5:53 PM 39.9 °F 35.1 °F 30.9 °F 70% 30.31 in 10.0 mi North 6.9 mph - N/A   Overcast
6:53 PM 39.9 °F 35.8 °F 30.0 °F 68% 30.32 in 10.0 mi North 5.8 mph - N/A   Overcast
7:42 PM 39.2 °F 35.0 °F 30.2 °F 70% 30.32 in 10.0 mi NNW 5.8 mph - N/A   Overcast
7:53 PM 39.0 °F 35.7 °F 28.9 °F 67% 30.34 in 10.0 mi North 4.6 mph - N/A   Overcast
8:53 PM 37.9 °F 31.5 °F 28.9 °F 70% 30.34 in 9.0 mi North 9.2 mph - 0.00 in Rain Light Rain
9:00 PM 33.8 °F 27.7 °F 30.2 °F 87% 30.33 in 1.8 mi North 6.9 mph - 0.00 in Snow Light Snow
9:08 PM 33.8 °F - 30.2 °F 87% 30.32 in 0.8 mi Calm Calm - 0.00 in Snow Light Snow
9:20 PM 33.8 °F 30.8 °F 32.0 °F 93% 30.30 in 0.8 mi SE 3.5 mph - 0.01 in Snow Light Snow
9:27 PM 33.8 °F 27.0 °F 32.0 °F 93% 30.28 in 1.0 mi ESE 8.1 mph - 0.01 in Snow Light Snow
9:35 PM 33.8 °F 26.4 °F 30.2 °F 87% 30.27 in 3.0 mi SE 9.2 mph - 0.01 in Rain Light Rain
9:42 PM 33.8 °F 29.6 °F 30.2 °F 87% 30.27 in 5.0 mi Variable 4.6 mph - 0.01 in Rain Light Rain
9:53 PM 34.0 °F 31.0 °F 32.0 °F 92% 30.28 in 3.0 mi SSE 3.5 mph - 0.02 in Rain Light Rain
10:40 PM 33.8 °F 29.6 °F 32.0 °F 93% 30.26 in 6.0 mi NNW 4.6 mph - 0.04 in Rain Light Rain
10:53 PM 34.0 °F 28.8 °F 32.0 °F 92% 30.25 in 6.0 mi NNE 5.8 mph - 0.05 in Rain Light Rain
11:53 PM 34.0 °F 27.2 °F 32.0 °F 92% 30.25 in 8.0 mi North 8.1 mph - 0.02 in   Overcast